Location: Izdebno
(52.6670°N, 16.2170°E)
Time: 10:09:35
(UTC+01:00)

Transit 2A - Pass Details

Date: 30 January 2023
Orbit: 591 x 964 km, 66.7° (Epoch: 21 March)

Event Time Altitude Azimuth Distance (km) Brightness Sun altitude
Rises 21:27:28 0° 284° (WNW) 3,181 9.9 -42.9°
Reaches altitude 10° 21:30:20 10° 301° (WNW) 2,329 9.1 -43.3°
Enters shadow 21:31:17 14° 309° (NW) 2,105 8.8 -43.4°
Maximum altitude 21:34:22 21° 350° (N) 1,780 - -43.8°
Drops below altitude 10° 21:38:41 10° 38° (NE) 2,521 - -44.3°
Sets 21:41:57 0° 54° (NE) 3,524 - -44.7°
